Year,Month,Day,Hour,Minute,Value (Times are PST for windgust in km/hr)
2015,07,17,00,09,1.60
2015,07,17,00,10,3.20
2015,07,17,00,11,3.20
2015,07,17,00,12,4.80
2015,07,17,00,13,4.80
2015,07,17,00,14,3.20
2015,07,17,00,15,3.20
2015,07,17,00,16,1.60
2015,07,17,00,24,1.60
2015,07,17,00,25,1.60
2015,07,17,00,26,1.60
2015,07,17,00,27,3.20
2015,07,17,00,28,3.20
2015,07,17,00,29,3.20
2015,07,17,00,30,1.60
2015,07,17,00,31,1.60
2015,07,17,00,32,1.60
2015,07,17,00,54,3.20
2015,07,17,00,55,1.60
2015,07,17,01,01,1.60
2015,07,17,01,02,1.60
2015,07,17,01,07,1.60
2015,07,17,01,08,1.60
2015,07,17,01,09,1.60
2015,07,17,01,46,1.60
2015,07,17,01,47,3.20
2015,07,17,01,48,1.60
2015,07,17,01,49,1.60
2015,07,17,01,50,1.60
2015,07,17,01,51,1.60
2015,07,17,01,54,1.60
2015,07,17,01,55,1.60
2015,07,17,01,57,1.60
2015,07,17,01,58,1.60
2015,07,17,01,59,1.60
2015,07,17,02,00,3.20
2015,07,17,02,01,3.20
2015,07,17,02,02,1.60
2015,07,17,02,04,1.60
2015,07,17,02,05,1.60
2015,07,17,02,06,4.80
2015,07,17,02,07,4.80
2015,07,17,02,08,3.20
2015,07,17,02,09,1.60
2015,07,17,02,10,1.60
2015,07,17,02,11,1.60
2015,07,17,02,12,1.60
2015,07,17,02,14,1.60
2015,07,17,02,15,1.60
2015,07,17,02,17,1.60
2015,07,17,02,18,1.60
2015,07,17,02,19,3.20
2015,07,17,02,20,1.60
2015,07,17,02,21,1.60
2015,07,17,02,22,3.20
2015,07,17,02,23,3.20
2015,07,17,02,24,3.20
2015,07,17,02,25,3.20
2015,07,17,02,26,3.20
2015,07,17,02,27,4.80
2015,07,17,02,28,3.20
2015,07,17,02,29,3.20
2015,07,17,02,30,3.20
2015,07,17,02,43,3.20
2015,07,17,02,44,3.20
2015,07,17,02,45,3.20
2015,07,17,02,46,4.80
2015,07,17,02,47,4.80
2015,07,17,02,48,1.60
2015,07,17,02,49,3.20
2015,07,17,02,50,4.80
2015,07,17,02,51,3.20
2015,07,17,02,52,4.80
2015,07,17,02,53,4.80
2015,07,17,02,54,3.20
2015,07,17,02,55,4.80
2015,07,17,02,56,4.80
2015,07,17,02,57,3.20
2015,07,17,02,58,3.20
2015,07,17,03,40,1.60
2015,07,17,03,41,1.60
2015,07,17,04,08,1.60
2015,07,17,04,12,1.60
2015,07,17,04,39,1.60
2015,07,17,04,40,3.20
2015,07,17,04,44,1.60
2015,07,17,04,54,1.60
2015,07,17,04,59,1.60
2015,07,17,05,00,3.20
2015,07,17,05,05,1.60
2015,07,17,05,06,1.60
2015,07,17,05,07,1.60
2015,07,17,05,08,1.60
2015,07,17,05,09,1.60
2015,07,17,05,10,1.60
2015,07,17,05,13,1.60
2015,07,17,05,15,1.60
2015,07,17,05,31,1.60
2015,07,17,05,37,1.60
2015,07,17,05,38,1.60
2015,07,17,05,39,1.60
2015,07,17,05,40,1.60
2015,07,17,05,44,3.20
2015,07,17,05,54,1.60
2015,07,17,05,57,1.60
2015,07,17,05,58,4.80
2015,07,17,05,59,4.80
2015,07,17,06,00,1.60
2015,07,17,06,05,1.60
2015,07,17,06,06,3.20
2015,07,17,06,07,6.40
2015,07,17,06,08,4.80
2015,07,17,06,09,1.60
2015,07,17,06,10,1.60
2015,07,17,06,13,1.60
2015,07,17,06,45,1.60
2015,07,17,06,50,1.60
2015,07,17,06,55,1.60
2015,07,17,06,56,1.60
2015,07,17,06,57,1.60
2015,07,17,07,01,1.60
2015,07,17,07,02,1.60
2015,07,17,07,18,1.60
2015,07,17,07,19,1.60
2015,07,17,07,20,1.60
2015,07,17,07,22,1.60
2015,07,17,07,23,1.60
2015,07,17,07,24,1.60
2015,07,17,07,25,1.60
2015,07,17,07,27,1.60
2015,07,17,07,29,1.60
2015,07,17,07,30,1.60
2015,07,17,07,38,1.60
2015,07,17,07,39,1.60
2015,07,17,07,40,1.60
2015,07,17,07,41,3.20
2015,07,17,07,42,3.20
2015,07,17,07,43,1.60
2015,07,17,07,44,1.60
2015,07,17,07,46,1.60
2015,07,17,07,47,1.60
2015,07,17,07,49,1.60
2015,07,17,07,50,1.60
2015,07,17,07,51,1.60
2015,07,17,07,54,1.60
2015,07,17,07,55,1.60
2015,07,17,07,56,1.60
2015,07,17,07,57,1.60
2015,07,17,07,58,1.60
2015,07,17,07,59,1.60
2015,07,17,08,04,1.60
2015,07,17,08,05,1.60
2015,07,17,08,09,3.20
2015,07,17,08,10,3.20
2015,07,17,08,11,6.40
2015,07,17,08,12,6.40
2015,07,17,08,13,3.20
2015,07,17,08,14,3.20
2015,07,17,08,15,1.60
2015,07,17,08,16,4.80
2015,07,17,08,17,4.80
2015,07,17,08,18,4.80
2015,07,17,08,19,3.20
2015,07,17,08,20,3.20
2015,07,17,08,23,1.60
2015,07,17,08,24,1.60
2015,07,17,08,25,1.60
2015,07,17,08,26,1.60
2015,07,17,08,29,1.60
2015,07,17,08,30,1.60
2015,07,17,08,31,1.60
2015,07,17,08,32,4.80
2015,07,17,08,33,4.80
2015,07,17,08,34,4.80
2015,07,17,08,35,1.60
2015,07,17,08,37,1.60
2015,07,17,08,38,6.40
2015,07,17,08,39,8.10
2015,07,17,08,40,9.60
2015,07,17,08,41,8.10
2015,07,17,08,42,9.60
2015,07,17,08,43,8.10
2015,07,17,08,44,9.60
2015,07,17,08,45,9.60
2015,07,17,08,46,12.90
2015,07,17,08,47,11.30
2015,07,17,08,48,9.60
2015,07,17,08,49,9.60
2015,07,17,08,50,9.60
2015,07,17,08,51,9.60
2015,07,17,08,52,11.30
2015,07,17,08,53,9.60
2015,07,17,08,54,8.10
2015,07,17,08,55,9.60
2015,07,17,08,56,9.60
2015,07,17,08,57,12.90
2015,07,17,08,58,12.90
2015,07,17,08,59,12.90
2015,07,17,09,00,12.90
2015,07,17,09,01,9.60
2015,07,17,09,02,12.90
2015,07,17,09,03,9.60
2015,07,17,09,04,9.60
2015,07,17,09,05,6.40
2015,07,17,09,06,8.10
2015,07,17,09,07,8.10
2015,07,17,09,08,8.10
2015,07,17,09,09,6.40
2015,07,17,09,10,6.40
2015,07,17,09,11,8.10
2015,07,17,09,12,6.40
2015,07,17,09,13,6.40
2015,07,17,09,14,9.60
2015,07,17,09,15,9.60
2015,07,17,09,16,9.60
2015,07,17,09,17,8.10
2015,07,17,09,18,6.40
2015,07,17,09,19,6.40
2015,07,17,09,20,4.80
2015,07,17,09,21,6.40
2015,07,17,09,22,6.40
2015,07,17,09,23,4.80
2015,07,17,09,24,11.30
2015,07,17,09,25,6.40
2015,07,17,09,26,11.30
2015,07,17,09,27,8.10
2015,07,17,09,28,1.60
2015,07,17,09,29,6.40
2015,07,17,09,30,9.60
2015,07,17,09,31,8.10
2015,07,17,09,32,9.60
2015,07,17,09,33,6.40
2015,07,17,09,34,6.40
2015,07,17,09,35,4.80
2015,07,17,09,36,4.80
2015,07,17,09,37,4.80
2015,07,17,09,38,4.80
2015,07,17,09,39,1.60
2015,07,17,09,40,3.20
2015,07,17,09,41,6.40
2015,07,17,09,42,6.40
2015,07,17,09,43,6.40
2015,07,17,09,44,4.80
2015,07,17,09,45,6.40
2015,07,17,09,46,8.10
2015,07,17,09,47,6.40
2015,07,17,09,48,4.80
2015,07,17,09,49,9.60
2015,07,17,09,50,9.60
2015,07,17,09,51,8.10
2015,07,17,09,52,8.10
2015,07,17,09,53,8.10
2015,07,17,09,54,6.40
2015,07,17,09,55,6.40
2015,07,17,09,56,6.40
2015,07,17,09,57,3.20
2015,07,17,09,58,9.60
2015,07,17,09,59,8.10
2015,07,17,10,00,9.60
2015,07,17,10,01,6.40
2015,07,17,10,02,3.20
2015,07,17,10,03,8.10
2015,07,17,10,04,11.30
2015,07,17,10,05,9.60
2015,07,17,10,06,4.80
2015,07,17,10,07,11.30
2015,07,17,10,08,6.40
2015,07,17,10,09,11.30
2015,07,17,10,10,9.60
2015,07,17,10,11,8.10
2015,07,17,10,12,6.40
2015,07,17,10,13,8.10
2015,07,17,10,14,9.60
2015,07,17,10,15,9.60
2015,07,17,10,16,11.30
2015,07,17,10,17,12.90
2015,07,17,10,18,6.40
2015,07,17,10,19,17.70
2015,07,17,10,20,12.90
2015,07,17,10,21,14.50
2015,07,17,10,22,20.90
2015,07,17,10,23,16.10
2015,07,17,10,24,6.40
2015,07,17,10,25,17.70
2015,07,17,10,26,17.70
2015,07,17,10,27,17.70
2015,07,17,10,28,17.70
2015,07,17,10,29,17.70
2015,07,17,10,30,19.30
2015,07,17,10,31,20.90
2015,07,17,10,32,22.50
2015,07,17,10,33,20.90
2015,07,17,10,34,16.10
2015,07,17,10,35,17.70
2015,07,17,10,36,17.70
2015,07,17,10,37,12.90
2015,07,17,10,38,16.10
2015,07,17,10,39,17.70
2015,07,17,10,40,17.70
2015,07,17,10,41,17.70
2015,07,17,10,42,25.70
2015,07,17,10,43,25.70
2015,07,17,10,44,20.90
2015,07,17,10,45,19.30
2015,07,17,10,46,20.90
2015,07,17,10,47,24.20
2015,07,17,10,48,19.30
2015,07,17,10,49,11.30
2015,07,17,10,50,16.10
2015,07,17,10,51,14.50
2015,07,17,10,52,14.50
2015,07,17,10,53,17.70
2015,07,17,10,54,16.10
2015,07,17,10,55,17.70
2015,07,17,10,56,17.70
2015,07,17,10,57,17.70
2015,07,17,10,58,16.10
2015,07,17,10,59,14.50
2015,07,17,11,00,14.50
2015,07,17,11,01,14.50
2015,07,17,11,02,16.10
2015,07,17,11,03,8.10
2015,07,17,11,04,19.30
2015,07,17,11,05,22.50
2015,07,17,11,06,19.30
2015,07,17,11,07,20.90
2015,07,17,11,08,16.10
2015,07,17,11,09,16.10
2015,07,17,11,10,9.60
2015,07,17,11,11,6.40
2015,07,17,11,12,19.30
2015,07,17,11,13,19.30
2015,07,17,11,14,20.90
2015,07,17,11,15,12.90
2015,07,17,11,16,19.30
2015,07,17,11,17,17.70
2015,07,17,11,18,14.50
2015,07,17,11,19,16.10
2015,07,17,11,20,8.10
2015,07,17,11,21,17.70
2015,07,17,11,22,14.50
2015,07,17,11,23,14.50
2015,07,17,11,24,19.30
2015,07,17,11,25,16.10
2015,07,17,11,26,11.30
2015,07,17,11,27,12.90
2015,07,17,11,28,12.90
2015,07,17,11,29,12.90
2015,07,17,11,30,16.10
2015,07,17,11,31,16.10
2015,07,17,11,32,14.50
2015,07,17,11,33,17.70
2015,07,17,11,34,12.90
2015,07,17,11,35,14.50
2015,07,17,11,36,12.90
2015,07,17,11,37,12.90
2015,07,17,11,38,14.50
2015,07,17,11,39,16.10
2015,07,17,11,40,14.50
2015,07,17,11,41,9.60
2015,07,17,11,42,14.50
2015,07,17,11,43,12.90
2015,07,17,11,44,12.90
2015,07,17,11,45,11.30
2015,07,17,11,46,6.40
2015,07,17,11,47,14.50
2015,07,17,11,48,16.10
2015,07,17,11,49,17.70
2015,07,17,11,50,11.30
2015,07,17,11,51,17.70
2015,07,17,11,52,9.60
2015,07,17,11,53,17.70
2015,07,17,11,54,19.30
2015,07,17,11,55,20.90
2015,07,17,11,56,16.10
2015,07,17,11,57,17.70
2015,07,17,11,58,14.50
2015,07,17,11,59,22.50
2015,07,17,12,00,14.50
2015,07,17,12,01,14.50
2015,07,17,12,02,16.10
2015,07,17,12,03,14.50
2015,07,17,12,04,12.90
2015,07,17,12,05,11.30
2015,07,17,12,06,16.10
2015,07,17,12,07,22.50
2015,07,17,12,08,20.90
2015,07,17,12,09,14.50
2015,07,17,12,10,8.10
2015,07,17,12,11,11.30
2015,07,17,12,12,6.40
2015,07,17,12,13,8.10
2015,07,17,12,14,11.30
2015,07,17,12,15,12.90
2015,07,17,12,16,6.40
2015,07,17,12,17,4.80
2015,07,17,12,19,6.40
2015,07,17,12,20,4.80
2015,07,17,12,21,8.10
2015,07,17,12,22,11.30
2015,07,17,12,23,4.80
2015,07,17,12,24,14.50
2015,07,17,12,25,12.90
2015,07,17,12,26,12.90
2015,07,17,12,27,9.60
2015,07,17,12,28,11.30
2015,07,17,12,29,6.40
2015,07,17,12,30,9.60
2015,07,17,12,31,11.30
2015,07,17,12,32,9.60
2015,07,17,12,33,3.20
2015,07,17,12,34,8.10
2015,07,17,12,35,11.30
2015,07,17,12,36,12.90
2015,07,17,12,37,11.30
2015,07,17,12,38,11.30
2015,07,17,12,39,6.40
2015,07,17,12,40,1.60
2015,07,17,12,41,9.60
2015,07,17,12,42,9.60
2015,07,17,12,43,11.30
2015,07,17,12,44,3.20
2015,07,17,12,45,6.40
2015,07,17,12,46,6.40
2015,07,17,12,47,6.40
2015,07,17,12,48,8.10
2015,07,17,12,49,3.20
2015,07,17,12,50,1.60
2015,07,17,12,51,4.80
2015,07,17,12,52,9.60
2015,07,17,12,53,9.60
2015,07,17,12,54,11.30
2015,07,17,12,55,12.90
2015,07,17,12,56,6.40
2015,07,17,12,57,6.40
2015,07,17,12,58,11.30
2015,07,17,12,59,8.10
2015,07,17,13,00,11.30
2015,07,17,13,01,9.60
2015,07,17,13,02,9.60
2015,07,17,13,03,12.90
2015,07,17,13,04,9.60
2015,07,17,13,05,6.40
2015,07,17,13,06,9.60
2015,07,17,13,07,11.30
2015,07,17,13,08,14.50
2015,07,17,13,09,14.50
2015,07,17,13,10,14.50
2015,07,17,13,11,11.30
2015,07,17,13,12,12.90
2015,07,17,13,13,9.60
2015,07,17,13,14,11.30
2015,07,17,13,15,12.90
2015,07,17,13,16,9.60
2015,07,17,13,17,9.60
2015,07,17,13,18,9.60
2015,07,17,13,19,12.90
2015,07,17,13,20,11.30
2015,07,17,13,21,12.90
2015,07,17,13,22,11.30
2015,07,17,13,23,12.90
2015,07,17,13,24,9.60
2015,07,17,13,25,9.60
2015,07,17,13,26,11.30
2015,07,17,13,27,11.30
2015,07,17,13,28,12.90
2015,07,17,13,29,14.50
2015,07,17,13,30,11.30
2015,07,17,13,31,9.60
2015,07,17,13,32,11.30
2015,07,17,13,33,12.90
2015,07,17,13,34,8.10
2015,07,17,13,35,14.50
2015,07,17,13,36,11.30
2015,07,17,13,37,11.30
2015,07,17,13,38,8.10
2015,07,17,13,39,12.90
2015,07,17,13,40,12.90
2015,07,17,13,41,9.60
2015,07,17,13,42,12.90
2015,07,17,13,43,8.10
2015,07,17,13,44,4.80
2015,07,17,13,45,4.80
2015,07,17,13,46,3.20
2015,07,17,13,47,3.20
2015,07,17,13,48,4.80
2015,07,17,13,49,9.60
2015,07,17,13,50,12.90
2015,07,17,13,51,11.30
2015,07,17,13,52,8.10
2015,07,17,13,53,8.10
2015,07,17,13,54,9.60
2015,07,17,13,55,14.50
2015,07,17,13,56,9.60
2015,07,17,13,57,4.80
2015,07,17,13,58,6.40
2015,07,17,13,59,12.90
2015,07,17,14,00,11.30
2015,07,17,14,01,11.30
2015,07,17,14,02,8.10
2015,07,17,14,03,11.30
2015,07,17,14,04,9.60
2015,07,17,14,05,8.10
2015,07,17,14,06,8.10
2015,07,17,14,07,9.60
2015,07,17,14,08,11.30
2015,07,17,14,09,11.30
2015,07,17,14,10,8.10
2015,07,17,14,11,11.30
2015,07,17,14,12,11.30
2015,07,17,14,13,11.30
2015,07,17,14,14,9.60
2015,07,17,14,15,14.50
2015,07,17,14,16,12.90
2015,07,17,14,17,11.30
2015,07,17,14,18,11.30
2015,07,17,14,19,9.60
2015,07,17,14,20,9.60
2015,07,17,14,21,11.30
2015,07,17,14,22,16.10
2015,07,17,14,23,11.30
2015,07,17,14,24,11.30
2015,07,17,14,25,11.30
2015,07,17,14,26,11.30
2015,07,17,14,27,11.30
2015,07,17,14,28,12.90
2015,07,17,14,29,11.30
2015,07,17,14,30,11.30
2015,07,17,14,31,11.30
2015,07,17,14,32,12.90
2015,07,17,14,33,12.90
2015,07,17,14,34,9.60
2015,07,17,14,35,9.60
2015,07,17,14,36,14.50
2015,07,17,14,37,11.30
2015,07,17,14,38,12.90
2015,07,17,14,39,12.90
2015,07,17,14,40,11.30
2015,07,17,14,41,9.60
2015,07,17,14,42,12.90
2015,07,17,14,43,14.50
2015,07,17,14,44,11.30
2015,07,17,14,45,14.50
2015,07,17,14,46,14.50
2015,07,17,14,47,12.90
2015,07,17,14,48,11.30
2015,07,17,14,49,11.30
2015,07,17,14,50,11.30
2015,07,17,14,51,11.30
2015,07,17,14,52,12.90
2015,07,17,14,53,9.60
2015,07,17,14,54,9.60
2015,07,17,14,55,12.90
2015,07,17,14,56,9.60
2015,07,17,14,57,9.60
2015,07,17,14,58,11.30
2015,07,17,14,59,12.90
2015,07,17,15,00,12.90
2015,07,17,15,01,9.60
2015,07,17,15,02,8.10
2015,07,17,15,03,11.30
2015,07,17,15,04,12.90
2015,07,17,15,05,9.60
2015,07,17,15,06,9.60
2015,07,17,15,07,9.60
2015,07,17,15,08,8.10
2015,07,17,15,09,3.20
2015,07,17,15,10,3.20
2015,07,17,15,11,8.10
2015,07,17,15,12,11.30
2015,07,17,15,13,8.10
2015,07,17,15,14,4.80
2015,07,17,15,15,4.80
2015,07,17,15,16,1.60
2015,07,17,15,17,4.80
2015,07,17,15,18,8.10
2015,07,17,15,19,12.90
2015,07,17,15,20,12.90
2015,07,17,15,21,12.90
2015,07,17,15,22,11.30
2015,07,17,15,23,12.90
2015,07,17,15,24,12.90
2015,07,17,15,25,12.90
2015,07,17,15,26,12.90
2015,07,17,15,27,9.60
2015,07,17,15,28,14.50
2015,07,17,15,29,14.50
2015,07,17,15,30,11.30
2015,07,17,15,31,11.30
2015,07,17,15,32,12.90
2015,07,17,15,33,11.30
2015,07,17,15,34,12.90
2015,07,17,15,35,8.10
2015,07,17,15,36,8.10
2015,07,17,15,37,9.60
2015,07,17,15,38,9.60
2015,07,17,15,39,9.60
2015,07,17,15,40,12.90
2015,07,17,15,41,16.10
2015,07,17,15,42,11.30
2015,07,17,15,43,9.60
2015,07,17,15,44,9.60
2015,07,17,15,45,9.60
2015,07,17,15,46,9.60
2015,07,17,15,47,9.60
2015,07,17,15,48,8.10
2015,07,17,15,49,11.30
2015,07,17,15,50,9.60
2015,07,17,15,51,11.30
2015,07,17,15,52,11.30
2015,07,17,15,53,11.30
2015,07,17,15,54,11.30
2015,07,17,15,55,11.30
2015,07,17,15,56,11.30
2015,07,17,15,57,11.30
2015,07,17,15,58,12.90
2015,07,17,15,59,14.50
2015,07,17,16,00,14.50
2015,07,17,16,01,16.10
2015,07,17,16,02,14.50
2015,07,17,16,03,14.50
2015,07,17,16,04,12.90
2015,07,17,16,05,14.50
2015,07,17,16,06,14.50
2015,07,17,16,07,16.10
2015,07,17,16,08,11.30
2015,07,17,16,09,11.30
2015,07,17,16,10,11.30
2015,07,17,16,11,11.30
2015,07,17,16,12,9.60
2015,07,17,16,13,9.60
2015,07,17,16,14,12.90
2015,07,17,16,15,11.30
2015,07,17,16,16,9.60
2015,07,17,16,17,11.30
2015,07,17,16,18,12.90
2015,07,17,16,19,14.50
2015,07,17,16,20,14.50
2015,07,17,16,21,11.30
2015,07,17,16,22,12.90
2015,07,17,16,23,12.90
2015,07,17,16,24,16.10
2015,07,17,16,25,14.50
2015,07,17,16,26,12.90
2015,07,17,16,27,11.30
2015,07,17,16,28,11.30
2015,07,17,16,29,12.90
2015,07,17,16,30,11.30
2015,07,17,16,31,9.60
2015,07,17,16,32,11.30
2015,07,17,16,33,8.10
2015,07,17,16,34,11.30
2015,07,17,16,35,14.50
2015,07,17,16,36,12.90
2015,07,17,16,37,12.90
2015,07,17,16,38,14.50
2015,07,17,16,39,14.50
2015,07,17,16,40,11.30
2015,07,17,16,41,12.90
2015,07,17,16,42,12.90
2015,07,17,16,43,11.30
2015,07,17,16,44,8.10
2015,07,17,16,45,9.60
2015,07,17,16,46,6.40
2015,07,17,16,47,12.90
2015,07,17,16,48,12.90
2015,07,17,16,49,16.10
2015,07,17,16,50,14.50
2015,07,17,16,51,16.10
2015,07,17,16,52,12.90
2015,07,17,16,53,14.50
2015,07,17,16,54,14.50
2015,07,17,16,55,14.50
2015,07,17,16,56,11.30
2015,07,17,16,57,12.90
2015,07,17,16,58,11.30
2015,07,17,16,59,14.50
2015,07,17,17,00,14.50
2015,07,17,17,01,12.90
2015,07,17,17,02,8.10
2015,07,17,17,03,9.60
2015,07,17,17,04,8.10
2015,07,17,17,05,12.90
2015,07,17,17,06,14.50
2015,07,17,17,07,9.60
2015,07,17,17,08,11.30
2015,07,17,17,09,12.90
2015,07,17,17,10,14.50
2015,07,17,17,11,12.90
2015,07,17,17,12,9.60
2015,07,17,17,13,9.60
2015,07,17,17,14,9.60
2015,07,17,17,15,8.10
2015,07,17,17,16,11.30
2015,07,17,17,17,11.30
2015,07,17,17,18,11.30
2015,07,17,17,19,9.60
2015,07,17,17,20,8.10
2015,07,17,17,21,11.30
2015,07,17,17,22,11.30
2015,07,17,17,23,8.10
2015,07,17,17,24,4.80
2015,07,17,17,25,6.40
2015,07,17,17,26,9.60
2015,07,17,17,27,9.60
2015,07,17,17,28,9.60
2015,07,17,17,29,9.60
2015,07,17,17,30,11.30
2015,07,17,17,31,9.60
2015,07,17,17,32,11.30
2015,07,17,17,33,14.50
2015,07,17,17,34,11.30
2015,07,17,17,35,11.30
2015,07,17,17,36,12.90
2015,07,17,17,37,11.30
2015,07,17,17,38,9.60
2015,07,17,17,39,12.90
2015,07,17,17,40,14.50
2015,07,17,17,41,14.50
2015,07,17,17,42,9.60
2015,07,17,17,43,9.60
2015,07,17,17,44,8.10
2015,07,17,17,45,9.60
2015,07,17,17,46,4.80
2015,07,17,17,47,9.60
2015,07,17,17,48,9.60
2015,07,17,17,49,8.10
2015,07,17,17,50,11.30
2015,07,17,17,51,11.30
2015,07,17,17,52,9.60
2015,07,17,17,53,8.10
2015,07,17,17,54,8.10
2015,07,17,17,55,8.10
2015,07,17,17,56,9.60
2015,07,17,17,57,8.10
2015,07,17,17,58,8.10
2015,07,17,17,59,8.10
2015,07,17,18,00,8.10
2015,07,17,18,01,6.40
2015,07,17,18,02,8.10
2015,07,17,18,03,9.60
2015,07,17,18,04,9.60
2015,07,17,18,05,8.10
2015,07,17,18,06,8.10
2015,07,17,18,07,9.60
2015,07,17,18,08,6.40
2015,07,17,18,09,8.10
2015,07,17,18,10,8.10
2015,07,17,18,11,8.10
2015,07,17,18,12,8.10
2015,07,17,18,13,9.60
2015,07,17,18,14,6.40
2015,07,17,18,15,8.10
2015,07,17,18,16,8.10
2015,07,17,18,17,6.40
2015,07,17,18,18,4.80
2015,07,17,18,19,6.40
2015,07,17,18,20,8.10
2015,07,17,18,21,8.10
2015,07,17,18,22,6.40
2015,07,17,18,23,8.10
2015,07,17,18,24,6.40
2015,07,17,18,25,4.80
2015,07,17,18,26,4.80
2015,07,17,18,27,6.40
2015,07,17,18,28,3.20
2015,07,17,18,29,6.40
2015,07,17,18,30,6.40
2015,07,17,18,31,4.80
2015,07,17,18,32,4.80
2015,07,17,18,33,4.80
2015,07,17,18,34,8.10
2015,07,17,18,35,8.10
2015,07,17,18,36,6.40
2015,07,17,18,37,4.80
2015,07,17,18,38,4.80
2015,07,17,18,39,9.60
2015,07,17,18,40,8.10
2015,07,17,18,41,8.10
2015,07,17,18,42,8.10
2015,07,17,18,43,8.10
2015,07,17,18,44,9.60
2015,07,17,18,45,8.10
2015,07,17,18,46,9.60
2015,07,17,18,47,6.40
2015,07,17,18,48,8.10
2015,07,17,18,49,6.40
2015,07,17,18,50,6.40
2015,07,17,18,51,3.20
2015,07,17,18,52,6.40
2015,07,17,18,53,6.40
2015,07,17,18,54,6.40
2015,07,17,18,55,4.80
2015,07,17,18,56,4.80
2015,07,17,18,57,6.40
2015,07,17,18,58,6.40
2015,07,17,18,59,6.40
2015,07,17,19,00,6.40
2015,07,17,19,01,3.20
2015,07,17,19,02,6.40
2015,07,17,19,03,4.80
2015,07,17,19,04,9.60
2015,07,17,19,05,6.40
2015,07,17,19,06,8.10
2015,07,17,19,07,4.80
2015,07,17,19,08,4.80
2015,07,17,19,09,6.40
2015,07,17,19,10,4.80
2015,07,17,19,11,8.10
2015,07,17,19,12,6.40
2015,07,17,19,13,8.10
2015,07,17,19,14,6.40
2015,07,17,19,15,6.40
2015,07,17,19,16,6.40
2015,07,17,19,17,8.10
2015,07,17,19,18,6.40
2015,07,17,19,19,6.40
2015,07,17,19,20,6.40
2015,07,17,19,21,9.60
2015,07,17,19,22,6.40
2015,07,17,19,23,4.80
2015,07,17,19,24,4.80
2015,07,17,19,25,4.80
2015,07,17,19,26,11.30
2015,07,17,19,27,8.10
2015,07,17,19,28,4.80
2015,07,17,19,29,6.40
2015,07,17,19,30,8.10
2015,07,17,19,31,6.40
2015,07,17,19,32,8.10
2015,07,17,19,33,8.10
2015,07,17,19,34,14.50
2015,07,17,19,35,11.30
2015,07,17,19,36,8.10
2015,07,17,19,37,6.40
2015,07,17,19,38,4.80
2015,07,17,19,39,4.80
2015,07,17,19,40,3.20
2015,07,17,19,41,4.80
2015,07,17,19,42,6.40
2015,07,17,19,43,6.40
2015,07,17,19,44,4.80
2015,07,17,19,45,4.80
2015,07,17,19,46,6.40
2015,07,17,19,47,4.80
2015,07,17,19,48,3.20
2015,07,17,19,49,4.80
2015,07,17,19,50,6.40
2015,07,17,19,51,6.40
2015,07,17,19,52,8.10
2015,07,17,19,53,9.60
2015,07,17,19,54,8.10
2015,07,17,19,55,9.60
2015,07,17,19,56,4.80
2015,07,17,19,57,3.20
2015,07,17,19,58,8.10
2015,07,17,19,59,8.10
2015,07,17,20,00,11.30
2015,07,17,20,01,8.10
2015,07,17,20,02,8.10
2015,07,17,20,03,6.40
2015,07,17,20,04,8.10
2015,07,17,20,05,6.40
2015,07,17,20,06,8.10
2015,07,17,20,07,8.10
2015,07,17,20,08,8.10
2015,07,17,20,09,8.10
2015,07,17,20,10,8.10
2015,07,17,20,11,11.30
2015,07,17,20,12,9.60
2015,07,17,20,13,8.10
2015,07,17,20,14,9.60
2015,07,17,20,15,6.40
2015,07,17,20,16,8.10
2015,07,17,20,17,4.80
2015,07,17,20,18,1.60
2015,07,17,20,19,8.10
2015,07,17,20,20,9.60
2015,07,17,20,21,6.40
2015,07,17,20,22,6.40
2015,07,17,20,23,4.80
2015,07,17,20,24,4.80
2015,07,17,20,25,6.40
2015,07,17,20,26,3.20
2015,07,17,20,27,4.80
2015,07,17,20,28,4.80
2015,07,17,20,29,6.40
2015,07,17,20,30,8.10
2015,07,17,20,31,8.10
2015,07,17,20,32,6.40
2015,07,17,20,33,4.80
2015,07,17,20,34,6.40
2015,07,17,20,35,4.80
2015,07,17,20,36,8.10
2015,07,17,20,37,8.10
2015,07,17,20,38,8.10
2015,07,17,20,39,4.80
2015,07,17,20,40,6.40
2015,07,17,20,41,8.10
2015,07,17,20,42,8.10
2015,07,17,20,43,8.10
2015,07,17,20,44,8.10
2015,07,17,20,45,9.60
2015,07,17,20,46,11.30
2015,07,17,20,47,12.90
2015,07,17,20,48,12.90
2015,07,17,20,49,9.60
2015,07,17,20,50,11.30
2015,07,17,20,51,8.10
2015,07,17,20,52,8.10
2015,07,17,20,53,11.30
2015,07,17,20,54,9.60
2015,07,17,20,55,12.90
2015,07,17,20,56,11.30
2015,07,17,20,57,14.50
2015,07,17,20,58,9.60
2015,07,17,20,59,8.10
2015,07,17,21,00,9.60
2015,07,17,21,01,8.10
2015,07,17,21,02,9.60
2015,07,17,21,03,6.40
2015,07,17,21,04,8.10
2015,07,17,21,05,9.60
2015,07,17,21,06,9.60
2015,07,17,21,07,8.10
2015,07,17,21,08,6.40
2015,07,17,21,09,8.10
2015,07,17,21,10,8.10
2015,07,17,21,11,8.10
2015,07,17,21,12,9.60
2015,07,17,21,13,9.60
2015,07,17,21,14,4.80
2015,07,17,21,15,3.20
2015,07,17,21,16,1.60
2015,07,17,21,17,3.20
2015,07,17,21,18,6.40
2015,07,17,21,19,8.10
2015,07,17,21,20,6.40
2015,07,17,21,21,4.80
2015,07,17,21,22,1.60
2015,07,17,21,23,3.20
2015,07,17,21,24,9.60
2015,07,17,21,25,9.60
2015,07,17,21,26,11.30
2015,07,17,21,27,9.60
2015,07,17,21,28,9.60
2015,07,17,21,29,8.10
2015,07,17,21,30,4.80
2015,07,17,21,31,4.80
2015,07,17,21,32,4.80
2015,07,17,21,33,6.40
2015,07,17,21,34,3.20
2015,07,17,21,35,1.60
2015,07,17,21,36,3.20
2015,07,17,21,37,4.80
2015,07,17,21,38,3.20
2015,07,17,21,39,3.20
2015,07,17,21,40,3.20
2015,07,17,21,41,1.60
2015,07,17,21,42,4.80
2015,07,17,21,43,4.80
2015,07,17,21,44,4.80
2015,07,17,21,45,4.80
2015,07,17,21,46,3.20
2015,07,17,21,47,1.60
2015,07,17,21,48,4.80
2015,07,17,21,49,3.20
2015,07,17,21,50,1.60
2015,07,17,21,51,1.60
2015,07,17,21,52,1.60
2015,07,17,21,53,1.60
2015,07,17,21,54,4.80
2015,07,17,21,55,3.20
2015,07,17,21,56,1.60
2015,07,17,21,57,1.60
2015,07,17,21,58,1.60
2015,07,17,21,59,1.60
2015,07,17,22,00,4.80
2015,07,17,22,01,3.20
2015,07,17,22,02,1.60
2015,07,17,22,03,3.20
2015,07,17,22,04,4.80
2015,07,17,22,05,3.20
2015,07,17,22,06,1.60
2015,07,17,22,07,4.80
2015,07,17,22,08,4.80
2015,07,17,22,09,1.60
2015,07,17,22,10,8.10
2015,07,17,22,11,6.40
2015,07,17,22,12,8.10
2015,07,17,22,13,6.40
2015,07,17,22,14,6.40
2015,07,17,22,15,9.60
2015,07,17,22,16,8.10
2015,07,17,22,17,8.10
2015,07,17,22,18,4.80
2015,07,17,22,19,3.20
2015,07,17,22,20,4.80
2015,07,17,22,21,3.20
2015,07,17,22,22,3.20
2015,07,17,22,30,1.60
2015,07,17,22,31,3.20
2015,07,17,22,32,4.80
2015,07,17,22,33,4.80
2015,07,17,22,34,6.40
2015,07,17,22,35,6.40
2015,07,17,22,36,4.80
2015,07,17,22,37,4.80
2015,07,17,22,38,3.20
2015,07,17,22,39,1.60
2015,07,17,22,40,3.20
2015,07,17,22,41,3.20
2015,07,17,22,42,6.40
2015,07,17,22,43,6.40
2015,07,17,22,44,4.80
2015,07,17,22,45,3.20
2015,07,17,22,46,1.60
2015,07,17,22,47,1.60
2015,07,17,22,49,3.20
2015,07,17,22,50,3.20
2015,07,17,22,51,3.20
2015,07,17,22,52,3.20
2015,07,17,22,53,3.20
2015,07,17,22,54,4.80
2015,07,17,22,55,4.80
2015,07,17,22,56,3.20
2015,07,17,22,57,3.20
2015,07,17,22,58,3.20
2015,07,17,22,59,3.20
2015,07,17,23,00,3.20
2015,07,17,23,01,3.20
2015,07,17,23,02,3.20
2015,07,17,23,03,4.80
2015,07,17,23,04,3.20
2015,07,17,23,05,3.20
2015,07,17,23,06,1.60
2015,07,17,23,07,1.60
2015,07,17,23,08,1.60
2015,07,17,23,09,1.60
2015,07,17,23,10,3.20
2015,07,17,23,11,3.20
2015,07,17,23,12,4.80
2015,07,17,23,13,6.40
2015,07,17,23,14,3.20
2015,07,17,23,15,3.20
2015,07,17,23,16,3.20
2015,07,17,23,17,3.20
2015,07,17,23,18,4.80
2015,07,17,23,19,4.80
2015,07,17,23,20,4.80
2015,07,17,23,21,4.80
2015,07,17,23,22,4.80
2015,07,17,23,23,6.40
2015,07,17,23,24,4.80
2015,07,17,23,25,4.80
2015,07,17,23,26,4.80
2015,07,17,23,27,4.80
2015,07,17,23,28,6.40
2015,07,17,23,29,6.40
2015,07,17,23,30,6.40
2015,07,17,23,31,3.20
2015,07,17,23,32,4.80
2015,07,17,23,33,3.20
2015,07,17,23,34,4.80
2015,07,17,23,35,3.20
2015,07,17,23,36,1.60
2015,07,17,23,37,3.20
2015,07,17,23,38,3.20
2015,07,17,23,39,4.80
2015,07,17,23,40,3.20
2015,07,17,23,41,3.20
2015,07,17,23,42,4.80